Погода в Холмовке

Россия / Республика Крым     44°39′25″N   33°45′13″E
темп.,
°C
ветер,
м/с
пор.,
м/с
влажн.,
%
обл.,
%
осадки,
мм/ч
давл.,
гПа
погр.,
м
25 февраля, чт
чт2500:000ююз129081 0.0 103623
03:000юв118840 0.0 103621
06:000юв229091 0.0 103634
09:00+2ю117983 0.0 103672
12:00+5з226479 0.0 1035403
15:00+6сз336670 0.0 1034465
18:00+4зсз117876 0.0 103343
21:00+3юз118675 0.0 103322
26 февраля, пт
пт2600:00+4ю238891 0.0 103268
03:00+4ююз119593 0.0 103123
06:00+4ююв2296100 0.0 103037
09:00+6ю129199 0.0 103064
12:00+9юз348186 0.0 1029408
15:00+10зюз457972 0.0 1027472
18:00+8юз348619 0.0 1026175
21:00+6ююз24929 0.0 102575
27 февраля, сб
сб2700:00+5ююз24920 0.0 102371
03:00+5ююз35920 0.0 1022112
06:00+4ю34910 0.0 102070
09:00+6ююз37860 0.0 1019310
12:00+10юз57700 0.0 1018566
15:00+10зюз67720 0.0 1017658
18:00+8з348756 0.0 1016352
21:00+7с359178 0.0 1017400
28 февраля, вс
вс2800:00+5с4789100 1.0 1017583
03:00+4с587597 1.6 1018602
06:00+2с238332 0.0 101888
09:00+3ссз368953 0.1 1020451
12:00+4ссз468189 0.3 1021661
15:00+5ссз566995 0.5 1022935
18:00+4ссз4684100 0.4 1023604
21:00+3ссв368098 0.6 1025608
1 марта, пн
пн100:00+1в128794 0.1 102629
03:00+1вюв118593 0.1 102623
06:00+1вюв1196100 0.1 102661
09:00+1св1193100 0.3 1026144
12:00+3с3368100 0.2 1027827
15:00+4с446398 0.3 1027937
18:00+3с456879 0.1 1028760
21:00+1ссв378081 0.1 1030299